Location: Holiday Acres Laynes 2 Mobile Home Park
(26.7249°N, 81.8671°W)
Time: 07:11:38
(UTC+00:00)

Cosmos 1867 - Pass Details

Date: 25 November 2020
Orbit: 776 x 800 km, 65.0° (Epoch: 21 January)

Event Time Altitude Azimuth Distance (km) Brightness Sun altitude
Rises 22:53:01 0° 217° (SW) 3,252 7.9 -4.7°
Reaches altitude 10° 22:55:29 10° 223° (SW) 2,330 7.2 -5.2°
Maximum altitude 23:00:40 50° 298° (WNW) 989 4.4 -6.3°
Drops below altitude 10° 23:05:55 10° 14° (NNE) 2,356 5.7 -7.4°
Sets 23:08:26 0° 19° (NNE) 3,291 6.4 -7.9°
